Flag for Canada Weather past 2 weeks in Sherbrooke, Quebec, Canada

Now
5 °F

Low clouds.


Feels Like: 5 °F
Forecast: 0 / 25 °F
Wind: 2 mph from Southeast

Location: Sherbrooke

Current Time: Dec 20, 2014 at 5:00:46 AM

Latest Report: Dec 20, 2014 at 4:00 AM


Visibility: 9 mi

Pressure: 30.30 "Hg

Humidity: 92%

Dew point: 3 °F

Location of SherbrookeLocation

Historic Weather in Sherbrooke — Graph

°F

Sherbrooke temperature yesterday

Maximum temperature yesterday: 27 °F (at 12:00 AM)
Minimum temperature yesterday: 5 °F (at 11:00 PM)
Average temperature yesterday: 19 °F

Past Weeks' High & Low Weather Summary

 TemperatureHumidityPressure
High36 °F (Dec 11, 11:00 AM)100% (Dec 6, 2:00 AM)30.84 "Hg (Dec 6, 2:00 AM)
Low-2 °F (Dec 7, 9:00 PM)44% (Dec 7, 2:00 PM)29.48 "Hg (Dec 11, 1:00 AM)
Average25 °F91%30.07 "Hg
* Reported Dec 5 4:00 AM — Dec 20 4:00 AM, Sherbrooke, Weather by CustomWeather, © 2014

Note: Actual official high and low records may vary slightly from our data, if they occured in-between our weather recording intervals... More about our weather records

Advertising

Sherbrooke weather history for previous 24 hours

 ConditionsComfort  
Time TempWeatherWind HumidityBarometerVisibility
4:00 AM
Dec 20
5 °FLow clouds.2 mph92%30.30 "Hg9 mi
3:00 AM5 °FLow clouds.3 mph92%30.28 "Hg9 mi
2:00 AM5 °FLow clouds.5 mph85%30.27 "Hg9 mi
1:00 AM5 °FClear.6 mph85%30.25 "Hg9 mi
12:00 AM3 °FClear.2 mph92%30.25 "Hg9 mi
11:00 PM
Dec 19
5 °FClear.3 mph92%30.24 "Hg9 mi
10:00 PM7 °FClear.2 mph92%30.23 "Hg9 mi
9:00 PM9 °FClear.3 mph92%30.22 "Hg9 mi
8:00 PM10 °FClear.No wind92%30.21 "Hg9 mi
7:00 PM12 °FClear.2 mph100%30.20 "Hg9 mi
6:00 PM12 °FClear.No wind100%30.17 "Hg9 mi
5:00 PM16 °FClear.3 mph100%30.14 "Hg9 mi
4:00 PM19 °FPartly sunny.7 mph86%30.12 "Hg9 mi
3:00 PM21 °FOvercast.7 mph86%30.09 "Hg9 mi
2:00 PM21 °FOvercast.8 mph86%30.06 "Hg9 mi
1:00 PM21 °FOvercast.9 mph86%30.05 "Hg9 mi
12:00 PM21 °FOvercast.8 mph93%30.04 "Hg9 mi
11:00 AM21 °FLight snow. Mostly cloudy.9 mph93%30.04 "Hg9 mi
10:00 AM21 °FLight snow. Overcast.10 mph93%30.04 "Hg9 mi
9:00 AM21 °FLight snow. Overcast.9 mph93%30.02 "Hg9 mi
8:01 AM21 °FLight snow. Overcast.5 mph93%30.00 "Hg9 mi
7:00 AM21 °FLight snow. Overcast.9 mph93%29.97 "Hg9 mi
6:00 AM21 °FOvercast.9 mph93%29.95 "Hg9 mi
5:00 AM23 °FOvercast.13 mph86%29.93 "Hg9 mi
Weather by CustomWeather, © 2014

See weather overviewHow to use our weather pages